Regional Weather Roundup
Issued by NWS Cleveland, OH

Home | Current Version | Previous Version | Graphics & Text | Print | Product List | Glossary On
Versions: 1 2 3 4 5 6 7 8 9 10 11 12 13 14 15 16 17 18 19 20 21 22 23 24 25 26 27 28 29 30 31 32 33 34 35 36 37 38 39 40 41 42 43 44 45 46 47 48 49 50
071
ASUS41 KCLE 040112
RWRCLE
OHIO REGIONAL WEATHER ROUNDUP
NATIONAL WEATHER SERVICE WILMINGTON, OH
800 PM EST SAT DEC 03 2016

NOTE: "FAIR" INDICATES FEW OR NO CLOUDS BELOW 12,000 FEET WITH NO
SIGNIFICANT WEATHER AND/OR OBSTRUCTIONS TO VISIBILITY.

OHZ001>008-015>018-024>027-034-035-043-044-040200-
   NORTHWEST OHIO

CITY           SKY/WX    TMP DP  RH WIND       PRES   REMARKS
DEFIANCE       CLOUDY    36  25  64 CALM      30.31R
FINDLAY        CLOUDY    36  24  62 SW6       30.30R
TOLEDO EXPRESS CLOUDY    36  29  75 W3        30.30R
TOLEDO EXEC    CLOUDY    37  31  78 CALM      30.31S
LIMA           CLOUDY    34  27  75 N6        30.30R WCI  29
$$

OHZ009>014-019>023-028>033-038-089-040200-
   NORTHEAST OHIO

CITY           SKY/WX    TMP DP  RH WIND       PRES   REMARKS
CLE-HOPKINS    CLOUDY    38  26  62 SW6       30.32S
CLE-LAKEFRONT  CLOUDY    39  27  62 SW10      30.29S
CUY CO. ARPT   CLOUDY    37  32  81 SW9       30.28F
LORAIN-ELYRIA  CLOUDY    36  26  67 W5        30.30F
ASHTABULA      CLOUDY    36  35  96 W5        30.28S
AKRON-CANTON   CLOUDY    37  25  61 W3        30.29S
WOOSTER        CLOUDY    35  25  66 W3        30.29F
MANSFIELD      CLOUDY    35  25  66 CALM      30.28S
YOUNGSTOWN     CLOUDY    36  30  79 W5        30.26F
$$

OHZ042-051>053-060>062-070>072-077>081-040200-
  SOUTHWEST OHIO

CITY           SKY/WX    TMP DP  RH WIND       PRES   REMARKS
CINC-COVINGTON CLOUDY    36  29  75 N7        30.30S
CINC-LUNKEN    CLOUDY    40  32  73 NE3       30.33S
HAMILTON       CLOUDY    39  29  67 CALM      30.32F
DAYTON         CLOUDY    37  27  67 S3        30.30F
WRIGHT-PAT AFB CLOUDY    37  29  73 CALM      30.30F
DAYTON GENERAL CLOUDY    37  28  70 E3        30.29F
WILMINGTON     CLOUDY    34  29  82 CALM      30.30S
$$

OHZ036-037-039>041-045>050-054>059-063>069-073>076-082>088-040200-
  CENTRAL AND SOUTHEAST OHIO

CITY           SKY/WX    TMP DP  RH WIND       PRES   REMARKS
COLUMBUS       CLOUDY    37  29  72 E3        30.30S
OSU AIRPORT    CLOUDY    37  29  72 CALM      30.30R
BOLTON FIELD   CLOUDY    37  30  77 CALM      30.31S
RICKENBACK AFB CLOUDY    37  29  73 CALM      30.31S
NEWARK         CLOUDY    37  26  64 CALM      30.30S
MARION         CLOUDY    35  28  75 CALM      30.31R
LANCASTER      CLOUDY    38  31  76 CALM      30.31S
ZANESVILLE     CLOUDY    36  29  75 CALM      30.31S
NEW PHILLY     CLOUDY    36  27  69 CALM      30.32S
$$




USA.gov is the U.S. government's official web portal to all federal, state and local government web resources and services.